This is the latest recevied weather packets stored in our database for station/object OE9SAU-10. If no packets are shown the sender has not sent any weather packets the latest 10 day(s).
| Time | Temp. | Humidity | Pressure | Rain* | Wind** | Luminosity | Snow |
|---|---|---|---|---|---|---|---|
| 1777253561 | 13.89° C | 36% | 1024.1 hPa | - | - | - | - |
| 1777252661 | 13.89° C | 36% | 1024.1 hPa | - | - | - | - |
| 1777251761 | 14.44° C | 36% | 1024.2 hPa | - | - | - | - |
| 1777250861 | 14.44° C | 35% | 1024.2 hPa | - | - | - | - |
| 1777249961 | 14.44° C | 35% | 1024.3 hPa | - | - | - | - |
| 1777249061 | 15° C | 35% | 1024.3 hPa | - | - | - | - |
| 1777248161 | 15° C | 35% | 1024.3 hPa | - | - | - | - |
| 1777247261 | 15.56° C | 34% | 1024.4 hPa | - | - | - | - |
| 1777246361 | 15.56° C | 34% | 1024.4 hPa | - | - | - | - |
| 1777245461 | 15.56° C | 34% | 1024.3 hPa | - | - | - | - |
| 1777244561 | 15.56° C | 34% | 1024.4 hPa | - | - | - | - |
| 1777243661 | 16.11° C | 33% | 1024.3 hPa | - | - | - | - |
| 1777242761 | 16.11° C | 33% | 1024.2 hPa | - | - | - | - |
| 1777241861 | 16.67° C | 32% | 1024.1 hPa | - | - | - | - |
| 1777240961 | 16.67° C | 31% | 1024.2 hPa | - | - | - | - |
| 1777240061 | 17.22° C | 32% | 1024.2 hPa | - | - | - | - |
| 1777239161 | 17.22° C | 31% | 1024.1 hPa | - | - | - | - |
| 1777238261 | 17.78° C | 30% | 1024 hPa | - | - | - | - |
| 1777237361 | 17.78° C | 31% | 1024.1 hPa | - | - | - | - |
| 1777236460 | 18.33° C | 30% | 1024.1 hPa | - | - | - | - |
| 1777235560 | 18.89° C | 30% | 1024.1 hPa | - | - | - | - |
| 1777234660 | 18.89° C | 30% | 1024 hPa | - | - | - | - |
| 1777233760 | 19.44° C | 30% | 1023.9 hPa | - | - | - | - |
| 1777232860 | 19.44° C | 29% | 1023.7 hPa | - | - | - | - |
| 1777231960 | 20° C | 28% | 1023.6 hPa | - | - | - | - |
* Rain since midnight (hover to see other rain measurements)
** Current wind speed in m/s (hover to see current wind gust speed)